Home   Weather   Hamilton   Past weeks

Flag for Bermuda Past Weather in Hamilton, Bermuda — Yesterday and Last 2 Weeks

Now
70 °F

Broken clouds.


Feels Like: 70 °F
Forecast: N/A
Wind: 20 mph from Southeast

Location: Bermuda

Current Time: Apr 25, 2017 at 7:30:17 pm

Latest Report: Apr 25, 2017 at 6:55 pm


Visibility: N/A

Pressure: 30.12 "Hg

Humidity: 83%

Dew Point: 64 °F

Location of HamiltonLocation

Past Weather in Hamilton — Graph

°F

Hamilton Temperature Yesterday

Maximum temperature yesterday: 73 °F (at 10:55 am)
Minimum temperature yesterday: 64 °F (at 5:55 am)
Average temperature yesterday: 70 °F

High & Low Weather Summary for the Past Weeks

 TemperatureHumidityPressure
High73 °F (Apr 22, 12:55 pm)94% (Apr 24, 5:55 am)30.33 "Hg (Apr 24, 5:55 am)
Low61 °F (Apr 16, 1:55 am)40% (Apr 15, 12:55 pm)30.01 "Hg (Apr 22, 3:55 am)
Average67 °F68%30.17 "Hg
* Reported Apr 10 5:55 pm — Apr 25 5:55 pm, Hamilton, Weather by CustomWeather, © 2017

Note: Actual official high and low records may vary slightly from our data, if they occured in-between our weather recording intervals... More about our weather records

Advertising

Hamilton Weather History for the Previous 24 Hours

Scroll right to see more
 ConditionsComfort  
Time TempWeatherWind HumidityBarometerVisibility
5:55 pm
Tue, Apr 25
72 °FScattered showers. Cloudy.20 mph78%30.12 "HgN/A
4:55 pm72 °FCloudy.17 mph78%30.12 "HgN/A
3:55 pm72 °FBroken clouds.18 mph78%30.12 "HgN/A
2:55 pm72 °FMostly cloudy.18 mph78%30.12 "HgN/A
1:55 pm72 °FCloudy.18 mph73%30.12 "HgN/A
12:55 pm73 °FCloudy.21 mph69%30.12 "HgN/A
11:55 am72 °FBroken clouds.20 mph78%30.12 "HgN/A
10:55 am72 °FBroken clouds.20 mph78%30.12 "HgN/A
9:55 am72 °FBroken clouds.18 mph73%30.12 "HgN/A
8:55 am70 °FBroken clouds.18 mph78%30.09 "HgN/A
7:55 am70 °FBroken clouds.18 mph78%30.09 "HgN/A
6:55 am70 °FPartly sunny.20 mph78%30.09 "HgN/A
5:55 am70 °FPartly cloudy.18 mph78%30.07 "HgN/A
5:13 am70 °FMostly cloudy.17 mph78%30.07 "HgN/A
4:55 am70 °FMostly cloudy.17 mph83%30.07 "HgN/A
3:55 am70 °FOvercast.16 mph83%30.07 "HgN/A
2:55 am70 °FPassing clouds.16 mph78%30.09 "HgN/A
1:55 am70 °FPartly cloudy.16 mph78%30.12 "HgN/A
12:55 am70 °FPassing clouds.15 mph78%30.12 "HgN/A
11:55 pm
Mon, Apr 24
70 °FMostly cloudy.14 mph78%30.15 "HgN/A
10:55 pm70 °FScattered showers. Overcast.14 mph78%30.15 "HgN/A
9:55 pm70 °FOvercast.12 mph78%30.15 "HgN/A
8:55 pm70 °FOvercast.12 mph78%30.12 "HgN/A
7:55 pm70 °FPassing clouds.12 mph78%30.12 "HgN/A
Weather by CustomWeather, © 2017

See weather overviewHow to use our weather pages